Regional Weather Roundup
Issued by NWS Pendleton, OR

Home | Current Version | Previous Version | Text Only | Print | Product List | Glossary On
Versions: 1 2 3 4 5 6 7 8 9 10 11 12 13 14 15 16 17 18 19 20 21 22 23 24 25 26 27 28 29 30 31 32 33 34 35 36 37 38 39 40 41 42 43 44 45 46 47 48 49 50
000
ASUS46 KPDT 232110
RWRPDT
PENDLETON REGIONAL WEATHER ROUNDUP
NATIONAL WEATHER SERVICE PENDLETON OREGON
200 PM PDT SUN JUL 23 2017

NOTE: FAIR INDICATES FEW OR NO CLOUDS BELOW 12,000 FEET WITH NO
SIGNIFICANT WEATHER AND/OR OBSTRUCTIONS TO VISIBILITY.

# INDICATES UNOFFICIAL STATION AND DATA

WAZ520-232210-
EAST SLOPES OF WASHINGTON CASCADES

CITY            SKY/WX      TMP DP  RH  WIND    PRES   REMARKS
#BULLFROG       N/A         79  56  45  W9G26   N/A
#CLE ELUM HS    N/A         79  54  42  SW7     29.92F
#CLE ELUM LAKE  N/A         76  56  50  NW1     30.01F
#EASTON DOT     N/A         76  55  48  N9      N/A
#ELK HTS DOT    N/A         80  80  100 W8      N/A
#GLENWOOD       N/A         89  57  34  S5      29.80F
#NELSON 3SW     N/A         78  55  45  S1      30.06S
#NILE           N/A         86  55  35  W5      29.11F
#TEANAWAY 4NE   N/A         83  58  43  SW9     N/A
#TROUT LAKE 1NE N/A         86  57  37  W10     29.83F
#TROUT LAKE 1E  N/A         89  56  33  N2      29.97F
$$

WAZ521-232210-
SIMCOE HIGHLANDS

CITY            SKY/WX      TMP DP  RH  WIND    PRES   REMARKS
#BICKLETON HS   N/A         89  57  34  SW7     29.89F
#CENTERVILLE 1SWN/A         89  58  35  W13     29.77F
#GOLDENDALE 1NE N/A         90  39  17  SW7     N/A    HX 86
#GOLDENDALE 4W  N/A         91  32  12  W16     29.94F HX 87
#GOODNOE HILLS  N/A         95  56  27  SW17    N/A    HX 93
#LYLE 6NE       N/A         84  63  49  SW10    29.83F
#PITT 4SE       N/A         84  60  44  SW7     29.85F
$$

WAZ026-232210-
KITTITAS VALLEY

CITY            SKY/WX      TMP DP  RH  WIND    PRES   REMARKS
ELLENSBURG AP   FAIR        90  49  25  NW29G37 29.91F HX 87
#ELLENSBURG CWU N/A         85  55  36  N15     29.75F
#ELLENSBURG 3NE N/A         85  55  36  W15G26  27.98F
#ELLENSBURG 1E  N/A         85  55  36  NW7     29.85F
#KITTITAS 3S    N/A         81  62  53  NW6     29.80F
#MANASTASH RDG  N/A         84  83  97  N12     N/A
#ROCKY CYN DOT  N/A         89  60  38  NW22G29 N/A
#RYEGRASS DOT   N/A         85  55  36  W16G24  N/A
$$

WAZ027-232210-
YAKIMA VALLEY

CITY            SKY/WX      TMP DP  RH  WIND    PRES   REMARKS
SUNNYSIDE AP    N/A         89  58  35  CALM    29.85F
YAKIMA AIRPORT  FAIR        95  56  27  N5      29.86F HX 93
YAKIMA-VAGABOND SUNNY       93  51  24  NW5     29.86F HX 90
#DONALD 2NE     N/A         96  31  10  S3      28.71F HX 91
#GRANDVIEW      N/A         92  54  28  NW1     29.80F HX 90
#MABTON         N/A         90  65  44  N7      29.82F HX 92
#MOXEE 2E       N/A         93  N/A N/A SW3     29.75F
#NACHES 2SW     N/A         90  66  45  CALM    30.00S HX 92
#OUTLOOK DOT    N/A         91  54  29  N1      29.83F HX 89
#PARKER DOT     N/A         93  55  28  SW3     29.86F HX 91
#TERRACE HTS    N/A         94  60  32  N1      29.75F HX 94
#TOPPENISH      N/A         89  60  38  E1      29.72F
#I82 S UMTANUM RN/A         90  58  34  SE2     N/A    HX 89
#UNION GAP DOT  N/A         93  56  29  E2      29.88F HX 91
#W YAKIMA       N/A         90  59  35  E2      29.79F HX 89
#WHITE SWAN 5E  N/A         90  63  41  CALM    29.80F HX 91
#WILEY CITY 3W  N/A         92  53  27  CALM    29.85F HX 90
#ZILLAH DOT     N/A         91  53  28  E3      N/A    HX 89
$$

WAZ028-232210-
LOWER COLUMBIA BASIN...WASHINGTON

CITY            SKY/WX      TMP DP  RH  WIND    PRES   REMARKS
PASCO           FAIR        97  55  25  CALM    29.82F HX 95
PROSSER AWOS    N/A         95  59  30  CALM    29.86F HX 94
RICHLAND AWOS   FAIR        98  55  24  SE3     29.81F HX 96
#BENTON CITY    N/A         97  55  25  CALM    29.70F HX 95
#CONNELL 5N     N/A         92  58  32  SW2     29.80F HX 91
#CONNELL 5NW    N/A         89  59  37  SW5     29.77F
#ELTOPIA 6NW    N/A         88  65  47  CALM    28.84F
#KAHLOTUS       N/A         90  53  28  W13G25  29.79F HX 88
#KENNEWICK 3S   N/A         93  63  37  CALM    29.80F HX 94
#PATERSON       N/A         93  60  33  W3      29.78F HX 93
#PROSSER DOT    N/A         96  52  23  SW1     29.85F HX 93
#SAGEMOOR 2W    N/A         89  65  45  SE3     29.67F
#TOUCHET 2S     N/A         99  60  28  N5      29.78F HX 100
#WEST PASCO     N/A         97  64  34  SE1     29.80F HX 99
$$

WAZ029-232210-
FOOTHILLS OF THE BLUES...WASHINGTON

CITY            SKY/WX      TMP DP  RH  WIND    PRES   REMARKS
WALLA WALLA AP  FAIR        95  53  24  W9      29.87F HX 92
#CLYDE 6NW      N/A         90  53  28  W9      29.79F HX 88
#DAYTON SCHOOL  N/A         91  48  23  E5      29.91F HX 88
#DELANEY DOT    N/A         98  45  17  S3      29.87F HX 94
#LOWDEN 2SE     N/A         94  61  34  W5      29.80F HX 94
#PLEASANT VIEW 1N/A         93  53  26  W7      29.82F HX 91
#PRESCOTT       N/A         95  65  37  CALM    29.78F HX 97
#WHITMAN COLLEGEN/A         92  57  31  SW8     29.84F HX 91
#WAITSBURG 5S   N/A         93  51  24  S2      29.88F HX 90
#WAITSBURG 6SSE N/A         92  48  22  NW3     29.84F HX 89
#WALLA WALLA 5E N/A         94  54  26  SW7     N/A    HX 92
#WHITMAN MISSIONN/A         93  61  35  CALM    29.81F HX 93
$$

WAZ030-232210-
BLUE MOUNTAINS...WASHINGTON

CITY            SKY/WX      TMP DP  RH  WIND    PRES   REMARKS
#DIXIE 5SE      N/A         85  48  28  W7      29.92F
$$

ORZ009-041-WAZ024-232210-
COLUMBIA RIVER GORGE

CITY            SKY/WX      TMP DP  RH  WIND    PRES   REMARKS
HOOD RIVER AP   FAIR        88  59  38  W5      29.89F
THE DALLES AP   FAIR        95  59  30  W16G25  29.84F HX 94
#ARLINGTON AIRPON/A         94  55  27  W13     29.80F HX 92
#CELILO DOT     N/A         98  63  32  W6      N/A    HX 100
#LYLE           N/A         83  64  53  NW14G25 29.85F
#MARYHILL       N/A         96  50  21  N13     29.71F HX 93
#RUFUS DOT      N/A         96  N/A N/A W9      N/A
#SMITHVILLE     N/A         89  63  42  NW13    29.81F

$$

ORZ510-232210-
NORTH CENTRAL OREGON

CITY            SKY/WX      TMP DP  RH  WIND    PRES   REMARKS
#ANTELOPE       N/A         91  52  27  SW7     29.62F HX 88
#CHENOWITH 1W   N/A         81  61  51  W24     N/A
#COW CYN RST AREN/A         89  40  18  CALM    N/A
#DUFUR          N/A         90  60  37  VRB7    29.79F HX 90
#DUFUR 9E       N/A         83  57  41  NW15G25 29.86F
#GRASS VALLEY 1SN/A         91  56  31  N7      29.98F HX 89
#KENT DOT       N/A         91  53  28  NW10    N/A    HX 89
#MAUPIN SCHOOL  N/A         96  57  27  NE5     29.89F HX 95
#MORO SCHOOL    N/A         87  60  40  W7      29.92F
#SHANIKO 5WSW   N/A         89  51  27  N6      N/A
#SHANIKO 4NW    N/A         86  47  26  NW3     30.05F
#TYGH VALLEY 2NEN/A         96  59  29  N1      29.78F HX 95
#WASCO DOT      N/A         94  58  30  W7      N/A    HX 93
#WASCO 5NE      N/A         93  56  29  W6      29.80F HX 91
$$

ORZ511-232210-
CENTRAL OREGON

CITY            SKY/WX      TMP DP  RH  WIND    PRES   REMARKS
BEND AIRPORT    PTCLDY      91  45  20  NW10    30.02F HX 87
MADRAS AIRPORT  FAIR        91  43  19  NE3     29.97F HX 87
PRINEVILLE AP   PTCLDY      91  43  19  VRB7    30.00F HX 87
REDMOND AIRPORT FAIR        93  37  14  N8      29.99F HX 89
#ASHWOOD SCHOOL N/A         91  46  21  NW3     29.92F HX 87
#BEND 1SW       N/A         88  49  26  NE3     N/A
#BEND-AWBREY    N/A         88  52  29  CALM    29.79F
#BEND-KIM LN    N/A         89  53  29  NE3     29.73F
#CULVER         N/A         89  52  28  E2      29.73F
#CULVER 8W      N/A         93  48  22  N5      29.98F HX 90
#LAKE BILLY CHINN/A         91  N/A N/A NE5     29.85F
#MADRAS 4S      N/A         89  25  10  CALM    N/A
#POWELL BUTTE   N/A         86  44  23  N5      29.98F
#PRINEVILLE     N/A         90  50  26  NW1     29.87F HX 87
#PRINEVILLE 3N  N/A         89  51  27  W7      29.86F
#WARM SPRINGS   N/A         97  57  27  CALM    29.68F HX 96

$$


ORZ509-232210-
EAST SLOPES OF OREGON CASCADES

CITY            SKY/WX      TMP DP  RH  WIND    PRES   REMARKS
SISTERS AWOS    N/A         90  50  26  SE6     29.97F HX 87
#BLUE BOX PASS  N/A         80  N/A N/A W2      N/A
#CAMP SHERMAN   N/A         96  48  20  CALM    29.86F HX 93
#LA PINE 4NW    N/A         88  52  29  CALM    29.84F
#LAVA BUTTE DOT N/A         87  49  27  NE6     N/A
#SISTERS ODOT   N/A         91  47  22  CALM    N/A    HX 88
#SISTERS 3N     N/A         88  51  28  E2      29.90F
#SUNRIVER       N/A         89  48  24  N1      29.98F
#TUMALO 3W      N/A         88  50  27  N2      29.67F
#WANOGA BUTTE D N/A         78  44  30  NE3     N/A

$$

ORZ044-232210-
LOWER COLUMBIA BASIN...OREGON

CITY            SKY/WX      TMP DP  RH  WIND    PRES   REMARKS
HERMISTON       FAIR        95  56  27  VRB3    29.84F HX 93
#BOARDMAN SCHOOLN/A         95  57  28  SW7     29.80F HX 94
#BOARDMAN 8SW   N/A         96  60  30  W8      29.79F HX 96
#ECHO 8SW       N/A         94  60  32  N3      29.85F HX 94
#I-84 EX 198 DOTN/A         92  65  41  E8      N/A    HX 94
#IONE SCHOOL    N/A         93  54  27  N1      29.80F HX 91
#UMATILLA       N/A         93  57  30  CALM    29.74F HX 92
$$

ORZ507-232210-
NORTHERN FOOTHILLS OF THE BLUES

CITY            SKY/WX      TMP DP  RH  WIND    PRES   REMARKS
PENDLETON AIRPT FAIR        94  52  24  VRB7    29.88F HX 91
#ADAMS 3WNW     N/A         92  56  30  CALM    29.79F HX 90
#ATHENA         N/A         92  53  27  CALM    29.83F HX 90
#CAYUSE         N/A         92  54  28  SW6     29.79F HX 90
#HELIX SCHOOL   N/A         91  52  27  W1      29.81F HX 88
#HELIX 3N       N/A         91  51  26  W7      29.90F HX 88
#HOLDMAN 5SE    N/A         93  55  28  W5      29.88F HX 91
#HOLDMAN 6E     N/A         92  55  29  SW7     29.62F HX 90
#M-F GROVE ELEM N/A         93  52  25  NW1     29.84F HX 90
#M-FREEWATER 5SEN/A         93  61  35  W1      29.88F HX 93
#PENDLETON DNTN N/A         99  53  22  SW1     29.86S HX 97
#PDT AQUATIC CTRN/A         91  57  32  CALM    29.87F HX 90
#PDT SUNRIDGE   N/A         94  57  29  W1      29.88F HX 93
#PENDLETON 7NW  N/A         92  65  41  W3      29.90F HX 94
#PILOT ROCK 1S  N/A         91  55  30  N5      29.91F HX 89
#PILOT ROCK     N/A         94  58  30  CALM    29.92F HX 93
#TUTUILLA       N/A         92  56  30  CALM    29.93F HX 90
#UMAPINE 2E     N/A         94  61  34  N2      29.82F HX 94
#WESTON SCHOOL  N/A         90  48  24  N1      29.82F HX 87

$$

ORZ508-232210-
SOUTHERN FOOTHILLS OF THE BLUES

CITY            SKY/WX      TMP DP  RH  WIND    PRES   REMARKS
LEXINGTON       FAIR        95  52  24  W8      29.93F HX 92
#AJAX           N/A         90  51  26  S7      30.09F HX 87
#CONDON 5W      N/A         88  48  25  W3      30.00F
#FOSSIL SCHOOL  N/A         91  49  24  W1      29.91F HX 88
#HEPPNER EOC    N/A         91  53  28  NW2     29.74F HX 89
#HEPPNER 4NE    N/A         88  52  29  SW1     29.80F
#LEXINGTON 2SE  N/A         96  57  27  W6      29.87R HX 95
#MIKKALO        N/A         92  50  24  NW8     30.03F HX 89
#OLEX 4N        N/A         93  54  27  W9      29.85F HX 91
#RUGGS 5NE      N/A         92  53  27  W2      30.14F HX 90
#RUGGS 2SW      N/A         91  49  24  NW6     29.80F HX 88

$$

ORZ502-503-232210-
BLUE MOUNTAINS

CITY            SKY/WX      TMP DP  RH  WIND    PRES   REMARKS
MEACHAM         FAIR        87  35  16  VRB6    30.04F
#BATTLE MTN DOT N/A         86  52  31  CALM    N/A
#GRANITE        N/A         90  39  17  N1      29.71F HX 86
#HEPPNER 15SE   N/A         87  50  28  W2      29.90F
#LADD CYN SMT   N/A         90  51  26  N9      N/A    HX 87
#LADD CREEK ODOTN/A         89  54  31  NE3     N/A
#LONG CREEK HS  N/A         78  36  22  CALM    N/A
#N POWDER DOT   N/A         90  55  31  N6      N/A    HX 88
#PIKES PEAK     N/A         82  50  33  N1      27.99S
#TOLLGATE       N/A         77  49  37  E1      29.98S
#TROY SCHOOL    N/A         97  52  22  CALM    29.61F HX 94
#UKIAH          N/A         87  50  28  NE5     29.75F
#WESTON 4E      N/A         85  51  31  W1      29.78F
$$

ORZ505-232210-
JOHN DAY BASIN

CITY            SKY/WX      TMP DP  RH  WIND    PRES   REMARKS
JOHN DAY        FAIR        94  35  13  W5      30.01F HX 89
#JOHN DAY KJDY  N/A         95  N/A N/A SW5     30.81R
#ANTELOPE 9ESE  N/A         97  51  21  NE3     N/A    HX 94
#DAYVILLE SCHOOLN/A         94  42  17  N2      29.90F HX 90
#MITCHELL       N/A         91  58  33  CALM    30.14F HX 90
#MITCHELL 8NW   N/A         89  46  23  E1      29.83F
#MONUMENT HS    N/A         97  42  15  E2      29.87F HX 93
#MT. VERNON 5SE N/A         90  41  18  W3      29.99F HX 86
#SPRAY SCHOOL   N/A         97  N/A N/A CALM    N/A
$$

ORZ506-232210-
OCHOCO AND JOHN DAY HIGHLANDS

CITY            SKY/WX      TMP DP  RH  WIND    PRES   REMARKS
#HORSE RIDGE DO N/A         86  40  20  W7      N/A
#IZEE 6NW       N/A         94  39  15  E1      N/A    HX 90
#PAULINA ODOT   N/A         93  35  13  SW3     N/A    HX 89
#PINE MTN OBS   N/A         78  45  31  N2      N/A
#PRAIRIE CITY   N/A         95  40  15  W2      30.14F HX 91
#SENECA         N/A         88  N/A N/A N5      N/A
#SENECA 9NW     N/A         90  42  19  NE1     29.79F HX 86
$$

ORZ049-232210-
GRANDE RONDE VALLEY

CITY            SKY/WX      TMP DP  RH  WIND    PRES   REMARKS
LA GRANDE       FAIR        91  46  21  N5      29.95F HX 87
#COVE           N/A         91  56  31  CALM    30.00F HX 89
#COVE SCHOOL    N/A         92  50  24  N2      29.98F HX 89
#COVE 6NW       N/A         90  50  26  NW3     29.80F HX 87
#ELGIN 3N       N/A         92  46  21  S3      29.92F HX 88
#ELGIN 1E       N/A         93  50  23  S1      N/A    HX 90
#IMBLER SCHOOL  N/A         87  49  27  CALM    29.92F
#ISLAND CITY 4N N/A         81  64  56  NE1     29.99F
#LA GRANDE-LEFFEN/A         98  52  21  E2      29.95F HX 95
#UNION 1S       N/A         92  50  24  CALM    29.80F HX 89
$$

ORZ050-232210-
WALLOWA COUNTY

CITY            SKY/WX      TMP DP  RH  WIND    PRES   REMARKS
JOSEPH AIRPORT  FAIR        88  39  18  W7      30.05F
#ENTERPRISE HS  N/A         89  51  27  NW1     29.70F
#IMNAHA SCHOOL  N/A         98  44  16  E2      29.86F HX 94
#IMNAHA 10S     N/A         96  47  19  NE2     29.93F HX 92
#JOSEPH         N/A         83  42  24  NW2     29.98F
#JOSEPH 3N      N/A         85  45  25  W2      30.06F
#JOSEPH 3W      N/A         85  53  33  CALM    29.92F
#LOSTINE        N/A         92  48  22  CALM    29.61F HX 89
#LOSTINE 3SE    N/A         89  46  23  S3      30.04F
#MT HOWARD 8000 N/A         67  43  42  N3      30.36F
#PROMISE 1S     N/A         86  50  29  W5      29.88F
#WALLOWA LAKE   N/A         92  50  24  NE2     30.08F HX 89
#WALLOWA SCHOOL N/A         91  47  22  NW3     29.92F HX 88



$$



USA.gov is the U.S. government's official web portal to all federal, state and local government web resources and services.